Theta_e
336 336 335 334 333 331 332 333 328 324 326 328 329 330 330 331 332 333 333 333 333 334 334 333 332 331 331 330 330 329 326 324 323 322 321 319 317 315 320 328 331 331 330 330 330 328 327 327 328 328 328 328 326 326 327 328 325 322 322 321 318 316
334 336 336 335 334 332 332 333 328 325 327 328 329 331 330 331 332 333 333 333 333 333 334 333 331 330 329 329 330 329 327 325 324 323 322 321 319 316 317 322 327 330 331 331 331 331 327 328 329 328 329 329 326 326 328 329 327 325 325 324 321 317
333 334 335 335 335 333 332 332 327 324 328 329 330 331 330 331 332 333 332 332 332 332 334 332 329 328 327 329 329 327 327 325 324 323 322 322 321 318 316 316 319 324 330 332 332 332 329 328 330 329 329 329 327 327 329 329 328 327 326 324 323 319
331 333 335 335 335 333 332 331 326 325 329 330 331 331 331 331 331 331 330 330 330 331 333 330 329 329 328 328 326 325 325 323 323 321 320 321 321 320 318 316 316 319 327 332 332 332 330 328 330 330 329 329 328 328 329 329 328 327 326 324 323 320
329 331 334 335 335 333 332 331 327 327 330 330 331 331 331 329 327 327 327 328 329 330 330 328 328 328 326 325 324 324 323 322 321 320 319 319 319 320 320 318 316 316 322 329 330 332 332 329 330 330 329 329 329 329 329 329 329 327 326 325 323 321
328 330 332 334 334 332 332 331 327 327 330 330 331 332 330 327 325 326 326 328 328 329 328 327 326 326 324 324 324 323 322 322 321 320 320 319 319 319 319 319 318 316 317 323 328 331 332 329 330 330 329 329 329 329 329 329 329 328 327 325 323 321
328 329 331 334 334 332 332 330 326 327 330 330 331 332 329 327 327 327 327 327 327 328 327 327 326 326 325 324 323 322 321 321 320 320 319 319 319 318 318 319 319 317 315 318 325 331 331 329 330 330 329 329 330 330 329 330 329 329 327 324 322 319
330 329 330 333 333 332 332 329 326 328 330 330 332 332 329 328 328 327 327 327 328 329 328 327 327 327 325 324 323 322 321 320 320 320 319 318 318 318 318 318 319 319 316 318 325 331 330 329 330 330 330 329 330 330 330 330 330 329 326 321 320 317
330 329 330 332 333 333 332 329 326 328 330 330 332 331 328 328 328 327 327 327 328 329 328 327 327 327 326 325 324 322 320 321 323 323 320 319 319 319 318 319 320 321 320 320 327 331 330 329 329 329 330 330 330 330 330 330 330 328 324 320 319 317
330 330 331 332 333 332 332 329 327 328 330 330 331 330 327 328 328 328 329 328 328 328 327 327 327 328 327 326 325 325 323 323 326 326 323 322 322 320 319 320 322 323 323 324 328 330 329 328 328 328 330 330 330 330 330 330 330 326 323 320 318 317
330 331 331 332 332 332 331 330 329 328 329 330 331 328 327 328 328 329 330 329 328 327 327 328 328 328 327 327 327 327 327 326 327 328 326 325 324 323 322 322 324 324 325 325 327 330 329 328 327 328 329 329 330 330 330 330 329 327 324 321 319 318
331 331 332 331 332 331 330 330 329 329 329 330 331 327 326 329 329 330 331 330 328 328 328 328 328 328 327 328 327 327 328 327 327 327 327 327 326 326 325 325 326 326 326 326 326 328 329 328 327 327 327 328 329 330 331 330 329 328 326 323 321 319
333 333 332 333 333 331 330 330 329 329 328 330 330 326 326 329 330 330 331 330 329 328 327 328 328 327 327 328 328 327 327 327 327 327 326 327 327 327 327 327 328 328 328 328 327 326 326 326 326 326 326 328 330 330 330 330 329 328 326 325 322 320
334 334 334 334 333 330 329 329 329 329 328 330 328 324 326 330 330 330 331 330 329 326 324 326 328 327 327 327 328 328 327 327 328 327 326 327 328 328 327 328 329 329 329 329 328 327 326 325 326 327 327 329 330 330 330 329 329 328 326 325 323 322
335 336 335 334 333 330 328 328 330 329 329 330 327 325 328 329 330 331 330 328 327 326 324 324 327 328 327 328 328 327 327 327 327 327 326 327 328 328 328 329 329 330 329 329 329 329 327 327 328 328 329 330 330 330 329 329 329 328 327 326 325 325
334 335 335 334 333 330 328 328 330 330 330 329 327 327 328 328 330 330 328 326 326 327 326 324 326 326 327 329 328 327 327 326 326 326 326 327 328 328 328 328 328 329 329 328 328 328 327 327 328 330 330 328 328 329 329 329 329 328 327 327 326 325
333 333 334 333 333 331 329 329 330 330 330 328 326 327 327 329 330 327 325 325 327 328 326 325 325 324 326 328 328 327 327 326 326 326 326 327 328 327 327 327 327 328 328 327 327 327 327 327 329 329 328 327 328 328 328 328 328 328 327 326 326 325
333 333 333 333 333 332 331 331 330 330 330 327 326 327 327 330 329 325 324 326 328 328 326 326 325 324 325 327 327 327 327 326 326 327 326 326 327 327 327 327 327 328 328 327 326 326 326 328 329 328 328 328 328 327 327 327 327 327 327 326 326 325
335 335 334 334 333 332 332 331 330 330 329 327 327 327 327 328 326 324 326 328 328 328 326 326 325 325 326 326 326 327 327 326 327 327 326 326 326 326 327 327 327 327 327 327 326 327 328 328 328 328 328 328 327 327 327 326 326 326 326 326 326 325
336 336 335 334 332 331 332 331 329 329 327 326 327 326 325 326 327 326 327 328 328 327 327 326 326 326 326 326 327 327 327 327 327 327 327 326 326 327 328 327 327 327 326 326 327 328 328 328 328 328 328 328 328 327 327 326 326 326 326 326 325 325
336 335 334 334 332 332 331 329 328 327 326 326 326 325 326 328 327 327 327 328 328 327 327 326 326 326 326 327 328 327 326 327 328 328 327 327 327 327 328 328 327 326 326 326 327 328 328 328 328 328 328 328 328 327 327 327 326 326 325 324 323 322
335 334 334 333 332 332 330 327 327 328 326 325 325 326 328 328 326 326 326 326 326 326 326 326 326 326 327 328 328 327 326 327 328 328 328 328 327 327 327 328 327 326 327 327 327 328 328 328 328 328 328 328 327 327 326 326 325 324 322 321 320 319
334 334 333 331 330 330 327 326 327 327 325 325 326 328 329 327 325 325 325 325 326 327 327 326 326 327 327 328 328 328 327 327 328 328 329 328 327 327 327 328 327 326 327 327 327 327 328 328 328 328 327 327 327 327 326 324 323 322 322 321 321 320
333 332 331 329 328 327 326 325 326 326 327 327 327 327 326 325 325 326 326 327 328 328 327 326 325 326 326 327 327 328 328 328 328 328 328 327 327 326 326 328 327 326 326 326 327 327 327 328 328 327 327 327 326 326 326 324 322 322 323 322 322 321
331 331 329 327 326 326 326 325 326 327 328 327 326 325 325 326 326 327 328 327 327 326 325 324 324 325 326 327 327 327 327 327 327 327 327 327 327 326 326 327 328 327 327 326 326 327 327 327 328 327 326 326 326 325 325 324 322 323 323 323 322 322
329 328 326 326 326 326 326 326 327 328 327 325 325 325 325 326 326 326 327 326 325 325 324 324 324 325 326 326 326 327 327 326 326 326 326 326 327 326 326 327 328 328 327 327 327 327 327 327 328 328 326 325 325 325 325 323 323 323 323 323 322 321
327 326 326 326 326 326 327 327 327 326 325 324 324 323 324 325 325 325 325 325 325 325 325 325 325 325 325 325 326 327 326 325 326 326 326 326 326 326 326 327 328 328 328 328 328 327 327 328 328 328 327 326 325 325 324 324 323 323 323 324 323 321
326 325 325 325 326 326 327 327 326 324 324 323 322 322 324 325 324 325 325 325 325 325 325 324 324 324 325 325 326 326 325 325 326 326 326 326 325 325 326 327 328 328 328 328 328 328 328 328 328 327 327 326 325 325 324 324 324 323 323 324 323 322
325 325 325 324 325 326 326 325 324 324 323 322 321 322 323 324 325 325 325 324 324 324 324 324 324 324 324 325 325 326 325 324 324 325 325 325 324 324 326 327 327 327 327 327 327 327 328 328 328 327 327 327 326 325 325 324 324 323 322 323 323 322
325 325 324 325 325 325 325 324 323 323 322 320 320 321 322 322 322 323 323 323 323 322 321 321 323 324 324 324 325 325 325 325 325 325 325 325 325 325 325 326 326 326 326 326 326 326 327 327 328 327 326 326 327 325 324 324 324 324 322 322 322 322
325 324 324 324 325 325 324 323 323 323 321 320 320 319 318 317 316 317 318 318 318 317 317 317 319 320 321 323 324 323 323 324 324 324 325 324 324 325 325 325 325 325 326 326 325 326 326 327 327 327 327 326 326 325 324 323 323 323 322 321 322 322
324 323 323 324 324 324 323 323 324 324 322 319 319 317 315 313 314 316 316 316 315 315 315 316 317 317 317 320 322 323 322 322 322 323 324 324 324 324 324 324 325 325 325 325 324 325 326 327 327 327 327 326 325 326 324 322 323 323 322 322 321 321
323 323 323 324 324 323 323 324 325 325 322 319 319 318 315 314 316 317 318 318 317 316 316 317 317 318 317 317 318 319 321 321 321 322 323 322 323 323 323 324 324 324 325 324 324 325 325 326 327 326 326 325 325 325 324 323 323 323 322 321 321 321
323 323 323 323 323 323 324 324 326 326 323 319 318 318 317 316 315 318 320 320 318 317 318 319 319 319 318 317 316 315 318 320 321 322 322 320 320 321 323 324 324 325 325 325 324 324 325 326 326 325 325 325 324 324 323 323 323 322 322 322 321 320
324 324 324 323 324 325 325 325 326 326 322 319 319 318 318 316 315 318 321 320 319 319 319 320 319 318 318 317 315 314 315 319 321 323 322 321 320 320 321 323 324 324 325 325 324 323 323 325 325 325 325 324 324 324 323 323 323 322 322 321 321 320
324 325 324 324 325 325 325 324 324 323 321 320 319 317 315 315 316 318 319 319 319 320 320 321 320 318 317 317 316 315 317 319 321 322 323 322 321 320 320 322 323 323 324 324 324 322 321 323 324 324 324 324 324 325 323 323 323 322 321 321 320 319
325 326 325 324 325 324 322 322 322 322 322 319 315 313 312 312 314 316 317 318 319 320 320 321 320 318 318 317 315 315 316 316 317 319 320 321 320 320 321 322 323 323 323 322 321 320 320 322 323 323 324 324 324 325 323 323 324 322 321 321 319 316
Wind_Speed
22 22 21 20 19 18 15 14 12 13 13 13 13 13 14 14 14 15 15 15 14 14 14 13 12 11 10 10 10 10 10 11 12 15 15 15 16 18 20 21 21 19 18 16 14 12 10 8 7 7 8 9 9 9 10 11 11 12 13 14 14 14
23 22 22 21 20 19 17 15 14 14 14 14 13 13 14 14 15 16 15 14 14 14 13 12 11 10 10 9 9 9 9 9 10 12 14 15 15 17 19 21 21 20 19 17 15 13 11 9 7 7 8 9 9 8 9 10 10 10 11 12 13 13
23 23 23 22 20 20 19 17 15 16 15 14 13 13 14 14 14 14 14 13 13 13 13 12 10 9 9 9 9 9 8 7 7 9 12 14 15 16 17 19 20 20 20 18 16 14 12 10 7 7 7 8 9 9 9 10 9 10 11 12 12 12
24 24 23 23 22 21 20 18 17 17 16 15 13 12 13 13 13 12 13 13 12 12 12 11 10 9 8 8 8 8 7 7 7 8 9 11 14 15 15 17 19 20 21 20 17 15 13 11 8 7 8 9 9 9 9 9 10 10 12 12 12 12
24 24 24 24 23 22 21 19 18 17 16 15 14 13 12 12 12 12 13 13 13 13 12 11 10 10 8 7 7 6 6 6 6 6 7 8 10 12 13 15 17 19 21 20 17 15 14 12 9 8 8 9 10 10 9 9 11 11 12 12 11 11
23 24 24 24 23 22 21 19 18 18 17 16 14 13 12 11 12 13 13 14 14 13 12 11 10 9 8 7 6 5 6 6 5 5 5 6 7 9 11 13 15 17 19 19 17 15 15 13 10 8 9 9 9 9 9 10 11 11 10 10 9 9
23 24 24 24 23 22 21 19 18 18 18 16 14 13 12 12 12 12 13 13 13 12 11 11 10 9 8 7 6 6 6 5 4 4 5 6 6 7 9 11 13 15 17 18 17 15 14 13 11 9 8 9 9 9 9 9 9 9 8 7 7 8
24 24 25 25 24 23 22 20 20 20 19 17 15 14 13 13 13 13 14 13 12 11 11 11 10 9 7 7 6 6 7 5 5 4 5 5 6 6 8 10 12 13 15 17 17 16 14 13 11 9 7 7 9 8 8 8 8 7 6 6 6 7
25 25 25 25 25 24 22 21 21 20 19 18 16 15 14 14 14 15 15 13 12 11 11 10 9 9 7 7 7 7 6 6 6 6 5 5 6 6 8 10 12 12 13 15 16 16 14 12 11 8 6 6 7 7 7 7 6 6 5 5 5 6
26 26 25 25 25 24 23 21 21 20 19 18 17 15 15 16 16 16 14 13 12 10 10 9 8 8 8 8 8 8 7 6 6 6 6 6 6 7 8 10 11 12 12 14 15 16 14 12 11 8 6 5 5 5 5 6 5 5 5 5 4 5
24 24 24 25 24 24 22 20 20 21 19 17 16 16 17 17 17 16 13 12 11 9 9 8 7 8 9 9 8 8 7 7 6 6 6 6 6 7 9 10 11 11 11 12 13 15 14 12 11 8 6 4 4 4 5 5 5 5 4 4 4 4
23 23 23 24 24 23 22 20 20 19 18 16 14 16 19 18 18 16 13 11 10 9 8 8 7 8 9 9 9 8 7 6 6 7 6 6 7 7 8 9 10 10 10 10 11 13 14 12 11 9 7 5 4 4 5 5 5 5 4 3 4 4
23 23 23 24 23 22 20 19 19 18 18 16 13 17 19 16 17 15 12 10 9 8 6 6 7 8 9 8 8 6 5 6 7 8 8 7 8 8 8 9 9 9 8 8 9 11 13 12 11 10 8 6 4 5 6 6 5 5 4 3 4 4
23 22 23 23 22 21 19 18 17 16 16 15 14 19 18 14 15 12 10 9 9 9 7 6 7 7 8 8 7 5 4 5 7 9 9 8 8 9 9 9 9 8 7 7 7 9 11 12 11 10 10 8 7 6 5 5 4 4 5 4 4 5
23 22 22 22 21 20 18 17 15 14 15 15 16 18 16 13 11 9 9 9 8 8 8 8 8 7 8 6 5 5 4 4 6 9 9 9 9 9 9 10 9 9 7 6 7 9 10 10 9 10 12 11 10 7 4 4 3 3 5 5 6 6
23 22 21 21 20 18 16 16 15 14 15 16 17 17 15 14 11 9 9 9 9 7 8 8 8 7 7 6 5 5 5 4 5 7 8 9 9 8 9 9 9 9 7 5 6 8 9 8 8 11 11 9 8 8 5 5 4 5 6 6 7 6
22 21 20 20 18 16 15 16 16 16 17 17 18 16 16 15 12 10 9 9 9 8 8 9 8 8 7 7 6 6 6 5 4 6 7 8 9 8 8 8 8 9 7 5 5 7 8 9 8 8 8 8 8 9 8 7 7 7 7 7 7 6
20 20 20 19 18 16 16 17 17 17 18 17 18 17 15 14 12 11 9 9 10 10 10 9 9 8 8 8 7 7 7 5 5 5 6 8 8 8 7 7 7 8 8 6 5 7 9 10 9 7 9 10 10 11 10 9 9 9 8 7 7 7
18 19 20 19 18 17 17 18 18 19 19 18 17 16 14 13 13 12 11 11 11 11 11 10 9 9 8 8 8 7 8 6 5 5 6 7 8 8 6 6 6 7 9 8 6 8 11 11 11 11 12 12 12 12 11 11 10 9 8 7 7 7
19 19 20 20 20 20 20 20 19 20 21 19 17 16 15 14 14 13 12 11 12 12 11 10 9 8 8 9 8 8 8 8 6 6 7 7 7 7 6 6 7 8 11 12 10 11 12 13 14 15 14 14 14 12 11 12 11 10 9 8 8 7
20 20 21 22 22 22 22 22 21 21 21 21 19 17 16 14 12 12 11 11 11 12 11 11 10 9 9 9 10 10 10 9 7 7 8 8 8 8 7 7 9 10 12 13 14 13 12 14 16 17 16 14 14 13 12 12 11 11 10 9 8 7
20 20 22 24 23 23 23 22 22 22 21 20 19 17 15 13 11 11 11 11 11 11 11 10 9 9 9 9 10 10 10 10 9 9 9 9 9 9 9 9 10 12 14 13 13 14 14 14 15 17 17 16 15 14 12 12 12 12 11 10 8 7
22 22 23 23 23 23 23 21 20 19 18 17 16 15 13 12 11 11 11 10 11 10 9 8 7 8 8 8 9 9 9 11 11 10 9 9 10 11 10 9 10 13 15 14 13 14 15 14 14 15 16 16 16 16 13 12 12 12 12 11 9 8
23 24 25 24 23 23 22 20 19 17 16 15 14 13 13 12 12 12 11 10 9 9 8 7 7 8 8 8 8 8 9 10 11 9 8 9 10 11 11 10 12 13 14 14 14 15 16 14 13 13 15 15 16 16 14 13 13 13 12 10 10 10
24 26 25 24 24 22 21 20 19 18 17 16 15 14 14 13 13 12 11 10 8 8 7 7 7 8 8 8 8 8 9 10 9 8 8 9 9 10 11 11 13 13 12 11 12 15 16 14 13 12 12 14 13 12 13 16 14 12 11 9 10 11
25 25 25 24 23 21 20 20 20 20 19 17 16 15 14 12 11 11 10 9 8 7 7 7 8 8 9 9 9 10 10 9 8 7 8 10 10 10 11 11 12 13 12 10 10 14 16 15 15 14 11 10 8 8 15 18 15 13 11 9 9 11
25 25 24 24 23 22 21 20 19 18 17 17 16 15 14 12 11 11 11 10 9 8 7 7 8 7 8 9 10 10 10 9 9 8 9 10 10 11 11 11 12 13 13 12 11 13 15 14 15 15 12 9 5 5 12 14 12 13 14 12 10 11
26 25 24 23 23 22 21 20 19 17 17 15 14 14 14 14 13 12 11 10 10 9 8 8 7 7 7 8 9 9 8 9 10 10 10 9 10 11 12 12 13 13 12 12 11 11 13 13 13 15 14 11 7 6 9 10 8 10 13 15 14 12
26 25 24 24 24 23 21 19 18 18 17 15 15 15 15 14 13 12 12 11 10 9 8 8 7 6 6 6 7 7 7 8 9 9 9 10 11 11 13 13 12 12 12 12 12 11 11 11 12 13 13 12 9 6 9 11 10 10 11 13 15 15
25 24 24 24 23 23 21 20 19 18 17 16 16 16 15 14 13 12 11 10 10 9 8 8 7 7 6 5 5 5 5 6 7 8 9 10 11 11 12 13 11 11 11 11 11 11 11 11 11 12 12 12 11 8 9 11 13 13 11 9 11 15
25 25 25 25 24 23 21 20 19 17 16 15 15 15 15 14 13 12 11 10 10 9 8 7 6 6 5 5 5 5 5 5 6 6 8 9 10 10 11 12 12 12 11 11 10 10 11 11 11 11 12 12 11 9 8 8 11 14 13 10 10 15
25 26 26 25 24 23 21 20 18 16 14 12 12 13 13 13 12 12 10 9 8 7 6 5 5 5 5 5 6 6 5 5 5 5 7 8 8 9 10 11 11 11 11 11 10 11 11 11 11 11 11 12 10 9 8 6 8 12 12 10 9 13
26 27 26 25 24 22 20 19 18 15 13 11 10 10 11 11 10 10 8 6 6 5 4 4 4 4 5 5 6 6 7 6 5 5 6 7 7 8 9 9 10 10 9 9 9 10 10 10 10 9 10 11 11 10 9 7 9 10 11 10 9 12
26 26 26 25 23 21 19 18 17 16 13 10 9 9 9 8 8 8 6 5 5 4 4 4 3 2 3 4 4 5 7 7 6 6 6 6 6 7 8 9 9 9 8 8 8 8 9 10 10 9 10 12 12 11 10 9 10 10 10 10 10 11
27 27 26 24 21 20 19 18 17 16 13 10 9 8 7 6 6 6 5 4 4 4 4 3 2 1 1 2 3 4 5 7 7 6 6 6 4 4 8 10 10 9 9 9 8 8 9 10 11 11 11 12 13 13 11 11 10 9 8 8 8 9
27 27 26 23 21 19 18 17 16 15 13 10 9 8 8 7 6 6 4 3 3 3 3 3 2 1 2 3 4 4 5 6 6 7 7 6 4 3 6 10 9 9 9 9 8 8 9 10 10 10 11 13 15 14 12 11 10 9 7 7 6 6
28 27 26 23 20 19 17 16 15 14 12 11 11 10 9 8 7 6 4 4 4 3 2 2 2 2 2 3 4 5 4 5 6 7 7 6 5 4 6 8 8 8 8 8 8 9 9 9 9 9 11 14 15 15 14 12 11 10 9 7 5 5
Wind_Direction
183 184 185 185 183 177 176 179 175 169 165 163 164 163 163 160 160 159 158 158 156 156 152 149 145 140 141 140 137 135 134 131 130 133 138 143 153 167 177 181 183 185 187 189 189 189 188 177 161 142 125 116 105 96 87 80 76 70 65 62 61 62
184 186 187 187 184 179 179 180 176 173 169 170 171 167 166 165 166 165 163 162 159 160 159 155 149 147 150 145 142 143 140 135 134 135 138 144 151 165 177 185 187 188 191 191 191 192 192 187 168 146 131 121 113 103 92 83 78 68 62 59 56 56
184 186 188 189 185 182 183 181 179 178 174 175 177 172 169 170 168 165 164 163 160 163 161 157 152 153 153 152 153 151 148 147 151 148 144 146 152 163 175 185 190 191 194 193 192 192 193 193 177 154 142 130 122 112 96 85 77 67 62 61 57 52
185 187 189 189 186 185 184 183 182 180 178 179 181 177 172 172 171 169 170 169 166 165 163 159 156 156 155 160 164 159 159 164 167 159 149 149 155 162 171 181 189 193 195 194 191 190 191 195 186 161 151 140 127 117 102 86 73 69 67 64 61 56
187 189 191 190 187 187 186 185 183 180 180 182 184 181 176 178 179 179 177 173 169 168 167 164 159 160 160 166 171 163 165 175 173 160 151 152 156 163 169 177 187 194 196 194 191 188 190 196 192 169 157 146 130 119 105 86 76 75 71 64 61 61
190 192 193 192 189 188 188 187 184 183 183 185 186 181 177 180 180 177 173 169 169 168 166 163 162 163 161 165 170 169 177 185 178 159 153 156 162 167 170 177 185 192 196 193 188 186 187 196 197 177 162 148 129 118 100 82 77 76 69 64 62 63
193 195 194 192 190 190 190 188 187 187 189 190 188 181 176 175 173 170 167 165 167 166 161 162 165 162 160 164 170 183 192 189 171 154 157 163 169 172 173 180 184 188 194 192 184 182 185 192 196 181 166 147 126 114 94 79 74 70 67 69 68 66
195 197 196 192 190 191 191 190 191 191 190 192 191 184 176 171 168 165 164 163 163 162 162 163 163 159 161 169 179 193 192 180 159 148 158 162 167 174 176 181 184 184 188 187 179 179 182 187 191 181 168 145 123 108 88 77 70 67 70 71 71 74
196 197 197 193 190 192 194 193 193 192 191 194 192 182 175 172 167 164 163 164 163 162 163 162 160 160 165 175 185 191 187 174 155 143 150 157 159 168 175 178 180 180 181 180 176 179 181 182 187 179 163 140 117 104 86 79 73 70 76 75 79 87
196 196 197 194 193 195 196 195 195 195 194 197 197 185 175 173 169 165 167 169 167 164 165 161 158 165 171 179 184 185 183 172 157 149 151 159 159 161 171 175 175 175 176 177 176 179 182 184 187 179 161 142 123 111 94 88 87 87 88 87 91 93
198 196 197 197 197 197 197 197 197 197 196 200 206 194 178 174 172 170 172 172 168 166 169 166 165 173 178 181 184 182 178 168 162 167 169 171 168 164 170 174 173 175 176 177 179 183 187 191 192 187 175 163 144 122 108 110 107 98 93 93 92 84
201 197 198 201 199 198 198 197 197 199 199 203 213 197 181 179 179 175 173 170 167 170 173 175 179 182 183 183 184 182 175 168 173 183 189 189 184 179 179 178 177 179 179 180 183 187 192 198 201 200 196 189 170 134 128 131 120 110 103 96 93 84
203 200 201 204 202 201 201 200 200 203 202 206 208 193 186 188 187 177 166 163 162 164 168 180 189 189 186 186 187 184 179 182 189 194 196 198 197 194 192 189 186 185 185 186 187 192 197 201 205 206 206 202 174 152 151 149 141 135 125 111 103 93
206 203 203 206 205 205 207 208 209 206 204 205 196 188 190 195 194 174 151 154 156 160 164 179 190 191 190 190 187 181 183 192 195 198 198 196 198 198 200 200 196 195 194 191 193 194 196 200 207 211 210 199 169 160 161 155 156 141 123 115 108 96
207 205 206 207 206 205 209 213 214 208 202 199 189 189 189 188 190 165 150 161 165 169 173 185 192 189 189 185 175 173 179 187 191 196 199 195 194 195 198 201 202 206 204 197 194 190 194 202 208 208 202 188 165 152 150 155 148 128 123 118 112 104
209 208 207 207 207 207 209 212 211 203 196 192 188 188 184 182 184 169 166 177 181 185 185 194 198 188 190 180 168 175 182 186 189 196 201 197 195 192 193 199 205 208 204 197 192 191 198 199 199 197 187 178 159 134 132 147 134 133 133 126 122 114
211 209 206 206 209 210 207 205 203 196 191 189 186 184 181 183 185 177 182 191 191 194 195 203 203 193 193 181 175 185 190 193 189 194 201 198 196 193 191 196 200 202 195 188 189 195 195 181 187 190 156 145 144 126 134 146 139 143 138 135 134 122
210 207 206 205 207 207 202 199 197 192 190 187 184 182 182 186 188 189 198 200 197 199 203 210 207 200 196 187 187 191 196 203 197 198 203 200 200 195 190 189 189 195 189 177 180 187 182 169 167 161 133 130 132 125 133 140 137 140 136 137 136 125
207 205 204 202 202 201 196 193 190 186 185 183 182 184 187 190 194 201 207 204 202 203 208 214 210 204 201 199 200 200 206 209 205 209 205 201 201 193 192 187 175 180 177 161 161 176 174 162 152 147 138 132 129 127 132 135 135 134 130 132 131 132
207 205 203 200 197 195 190 185 181 180 181 181 181 185 188 190 194 202 206 205 205 208 214 220 220 217 214 212 209 207 213 210 206 212 204 198 199 191 189 177 158 164 168 156 159 173 170 161 151 143 140 135 129 130 131 131 131 126 120 117 119 128
204 202 201 199 192 189 183 177 175 175 176 178 182 188 189 190 194 201 205 208 210 215 222 228 231 230 226 220 211 209 213 210 205 206 197 187 187 187 181 166 155 160 167 162 163 172 172 164 154 144 141 138 131 131 131 129 128 122 117 114 115 120
196 193 192 190 183 181 178 174 173 172 173 178 185 190 191 192 197 206 212 214 215 219 223 228 231 231 225 217 213 212 209 204 200 199 195 185 180 183 179 170 163 163 166 171 169 169 173 167 157 149 146 142 136 135 132 128 125 118 112 108 106 104
186 181 177 174 173 173 173 174 173 172 175 181 185 187 189 195 202 209 211 209 213 216 215 219 224 226 219 212 215 212 202 199 197 196 195 190 183 179 179 176 171 169 168 173 174 168 171 173 165 155 149 145 142 139 131 124 121 112 104 99 94 90
176 172 167 167 169 171 172 171 171 174 178 180 181 183 190 198 201 204 203 200 205 207 205 212 217 220 215 209 216 210 197 195 196 198 196 193 187 179 180 178 172 175 173 173 175 170 169 174 175 164 154 148 146 143 135 131 126 113 106 99 94 91
169 167 166 167 169 170 170 170 172 176 178 178 180 185 191 192 191 191 192 194 198 197 198 204 206 209 207 205 208 201 191 186 190 202 194 183 183 180 180 178 172 176 180 179 177 173 172 175 179 180 169 156 151 153 149 144 135 119 113 110 102 100
166 166 166 168 169 170 170 174 178 179 179 180 182 185 185 182 178 178 180 184 189 190 193 198 197 197 199 200 198 190 186 185 189 197 188 178 178 182 183 179 173 176 182 189 187 178 179 180 182 188 190 174 165 174 166 155 146 134 127 121 114 110
166 165 166 170 172 172 174 179 183 183 183 185 183 180 176 171 169 170 173 176 180 184 189 192 191 187 190 192 188 184 185 188 187 184 183 181 180 184 187 182 178 178 182 189 194 187 186 189 188 190 194 191 179 176 179 174 164 156 147 139 132 122
167 165 168 172 173 174 178 183 185 185 185 184 180 175 171 169 170 171 171 172 175 179 182 185 184 182 184 183 183 183 186 187 183 181 184 187 188 189 191 188 183 182 185 189 194 195 196 200 200 196 194 195 187 168 184 194 193 185 169 153 147 137
168 169 171 172 173 176 181 186 184 181 179 175 173 174 172 170 171 172 171 172 174 175 178 181 180 181 183 183 185 183 181 182 181 182 186 188 190 189 191 195 192 188 190 192 193 196 200 208 213 205 197 198 200 184 183 193 201 206 191 167 157 151
170 171 172 172 174 178 182 183 179 176 176 173 172 172 170 169 171 173 173 175 177 177 181 183 181 181 180 176 177 179 179 183 183 185 187 186 186 187 189 193 196 195 195 194 196 199 200 207 216 214 205 203 207 202 191 191 198 202 201 190 173 161
174 174 174 174 177 180 181 178 174 175 176 173 169 167 164 163 164 165 167 171 173 174 178 182 183 186 187 180 171 172 177 185 190 187 185 185 186 186 186 187 190 192 195 198 204 206 203 203 208 212 210 206 207 212 209 201 203 203 201 198 181 165
177 176 176 177 179 180 178 174 173 176 179 174 166 163 159 155 154 153 155 157 154 155 162 170 174 176 183 190 187 185 188 192 192 180 172 177 182 185 187 190 192 194 200 209 213 211 207 205 205 207 209 205 202 208 217 224 219 209 203 206 192 170
179 178 178 178 179 180 178 174 174 178 183 178 166 162 158 152 150 148 145 138 122 120 133 142 153 161 164 176 186 192 198 199 185 169 163 165 174 183 187 190 195 198 204 210 211 209 207 207 207 209 210 205 200 199 202 214 222 211 202 205 199 175
182 181 179 179 179 180 180 177 178 183 186 181 171 164 161 158 154 149 143 122 94 92 102 107 118 147 161 163 169 180 192 196 187 177 172 165 167 180 185 186 190 195 199 202 203 200 198 200 203 208 209 203 200 198 194 202 212 208 200 199 199 183
185 182 180 180 180 179 178 178 179 185 188 183 177 170 165 168 164 157 147 119 94 89 89 85 76 83 187 169 152 160 178 183 186 191 193 185 184 193 193 190 191 195 200 202 201 197 195 198 200 202 203 198 198 199 197 199 203 201 199 198 202 199
186 184 182 181 179 175 174 175 178 184 185 179 178 173 168 172 173 165 150 122 105 88 85 77 57 77 168 167 153 165 175 177 189 204 208 209 216 215 194 191 194 197 198 197 197 199 200 200 199 199 197 194 196 200 201 200 199 195 195 206 216 217
186 186 184 182 178 175 174 175 177 178 177 175 173 170 169 174 175 171 160 139 125 102 89 73 44 86 140 159 157 172 183 181 193 205 211 220 223 202 183 184 188 190 188 191 198 202 202 201 199 196 195 192 193 198 202 197 193 192 194 209 228 213